EW0158 Weather Reports


Display with metric or nautical units.
time (UTC)temp
F
wind
direction
speed
MPH
gust
MPH
rain 1hr
in
rain 24hr
in
rain mn
in
humidity
%
barometer
mb
20260505023017 68 180 8.0 15.0 0.00 0.00 0.00 85 1010.2
20260505022016 69 180 7.0 15.0 0.00 0.00 0.00 85 1010.4
20260505021018 69 180 8.0 13.0 0.00 0.00 0.00 84 1010.5
20260505020018 70 202 8.0 13.0 0.00 0.00 0.00 83 1010.5
20260505015016 70 180 8.0 13.0 0.00 0.00 0.00 82 1010.5
20260505014018 70 202 8.0 13.0 0.00 0.00 0.00 82 1010.5
20260505013016 71 180 10.0 16.0 0.00 0.00 0.00 81 1010.3
20260505012017 71 202 9.0 15.0 0.00 0.00 0.00 80 1010.3
20260505011016 72 202 9.0 15.0 0.00 0.00 0.00 79 1010.3
20260505010120 72 180 8.0 14.0 0.00 0.00 0.00 78 1010.6
20260505005016 73 180 9.0 14.0 0.00 0.00 0.00 77 1010.6
20260505004016 73 202 12.0 20.0 0.00 0.00 0.00 76 1010.6
20260505003016 74 202 13.0 20.0 0.00 0.00 0.00 75 1010.3
20260505002016 74 202 14.0 24.0 0.00 0.00 0.00 72 1010.7
20260505001016 75 202 13.0 21.0 0.00 0.00 0.00 72 1010.8
20260505000016 76 202 11.0 18.0 0.00 0.00 0.00 71 1011.0
20260504235016 76 202 12.0 21.0 0.00 0.00 0.00 71 1010.9
20260504234016 76 180 11.0 18.0 0.00 0.00 0.00 72 1010.6
20260504232016 77 202 14.0 20.0 0.00 0.00 0.00 69 1010.8
20260504231016 77 202 14.0 20.0 0.00 0.00 0.00 69 1010.8
20260504230016 77 202 10.0 17.0 0.00 0.00 0.00 70 1011.0
20260504225018 77 202 13.0 20.0 0.00 0.00 0.00 69 1010.9
20260504224016 77 180 13.0 20.0 0.00 0.00 0.00 69 1011.3
20260504223016 77 180 13.0 20.0 0.00 0.00 0.00 69 1011.4
20260504222019 77 180 10.0 20.0 0.00 0.00 0.00 69 1011.1
20260504221016 77 180 13.0 23.0 0.00 0.00 0.00 69 1011.4
20260504220016 77 202 11.0 23.0 0.00 0.00 0.00 69 1011.5
20260504215016 77 180 11.0 17.0 0.00 0.00 0.00 70 1011.7
20260504214017 77 180 13.0 20.0 0.00 0.00 0.00 69 1011.9
20260504213017 77 202 14.0 21.0 0.00 0.00 0.00 71 1012.0
20260504212017 77 180 12.0 21.0 0.00 0.00 0.00 70 1012.0
20260504211016 76 202 14.0 22.0 0.00 0.00 0.00 70 1012.3
20260504210016 76 202 15.0 23.0 0.00 0.00 0.00 71 1012.3
20260504205016 76 202 13.0 24.0 0.00 0.00 0.00 72 1012.4
20260504204016 76 202 14.0 21.0 0.00 0.00 0.00 71 1012.5
20260504203016 77 202 11.0 19.0 0.00 0.00 0.00 69 1012.8
20260504201016 78 202 14.0 20.0 0.00 0.00 0.00 68 1013.2
20260504200017 78 202 12.0 20.0 0.00 0.00 0.00 67 1013.3
20260504194016 77 180 10.0 17.0 0.00 0.00 0.00 70 1013.6
20260504193017 77 202 12.0 20.0 0.00 0.00 0.00 70 1013.8
20260504192016 76 202 16.0 26.0 0.00 0.00 0.00 70 1014.1
20260504191016 0 202 14.0 22.0 0.00 0.00 0.00
20260504190017 75 180 13.0 23.0 0.00 0.00 0.00 72 1014.1
20260504185016 75 202 13.0 19.0 0.00 0.00 0.00 72 1014.1
20260504184017 75 202 12.0 19.0 0.00 0.00 0.00 74 1014.3
20260504183016 74 202 12.0 19.0 0.00 0.00 0.00 74 1014.1
20260504182017 73 202 12.0 23.0 0.00 0.00 0.00 76 1014.2
20260504181017 73 202 12.0 22.0 0.00 0.00 0.00 75 1014.3
20260504180016 72 202 13.0 22.0 0.00 0.00 0.00 76 1014.3
20260504175016 72 202 12.0 20.0 0.00 0.00 0.00 76 1014.7
20260504174017 72 202 15.0 25.0 0.00 0.00 0.00 76 1014.7
20260504172017 71 202 15.0 23.0 0.00 0.00 0.00 78 1014.7
20260504171017 71 202 13.0 23.0 0.00 0.00 0.00 79 1015.0
20260504170117 70 202 13.0 22.0 0.00 0.00 0.00 79 1014.9
20260504151017 64 202 16.0 26.0 0.00 0.00 0.00 87 1014.9
20260504141017 62 202 15.0 22.0 0.00 0.00 0.00 89 1014.8
20260504081055 58 180 9.0 15.0 0.00 0.00 0.00 88 1016.0
20260504050015 61 180 6.0 11.0 0.00 0.00 0.00 69 1018.1
20260504045016 61 180 7.0 11.0 0.00 0.00 0.00 68 1018.0
20260504044017 61 180 6.0 10.0 0.00 0.00 0.00 68 1018.1
20260504043017 61 180 6.0 10.0 0.00 0.00 0.00 68 1018.2
20260504042017 62 180 6.0 11.0 0.00 0.00 0.00 68 1018.2
20260504041017 62 180 7.0 11.0 0.00 0.00 0.00 68 1018.2
20260504040017 62 180 6.0 11.0 0.00 0.00 0.00 68 1018.2
20260504035017 62 180 7.0 11.0 0.00 0.00 0.00 68 1018.1
20260504034017 62 180 7.0 11.0 0.00 0.00 0.00 68 1018.1
20260504033015 62 180 7.0 11.0 0.00 0.00 0.00 68 1018.1
20260504025017 62 157 5.0 10.0 0.00 0.00 0.00 68 1018.2